QPF
0.00 0.00 0.00 0.00 0.00 0.00 0.00 0.00 0.00 0.00 0.00 0.00 0.00 0.00 0.00 0.00 0.00 0.00 0.00 0.00 0.00 0.00 0.00 0.00 0.00 0.00 0.00 0.00 0.00 0.00 0.00 0.00 0.00 0.00 0.00 0.00 0.00 0.00 0.00 0.00 0.00 0.00 0.00 0.00
0.00 0.00 0.00 0.00 0.00 0.00 0.00 0.00 0.00 0.00 0.00 0.00 0.00 0.00 0.00 0.00 0.00 0.00 0.00 0.00 0.00 0.00 0.00 0.00 0.00 0.00 0.00 0.01 0.00 0.00 0.00 0.00 0.00 0.00 0.00 0.00 0.00 0.00 0.00 0.00 0.00 0.00 0.00 0.00
0.00 0.00 0.00 0.00 0.00 0.00 0.00 0.00 0.00 0.00 0.00 0.00 0.00 0.00 0.00 0.00 0.00 0.00 0.00 0.00 0.00 0.00 0.00 0.00 0.00 0.00 0.01 0.01 0.01 0.01 0.00 0.00 0.00 0.00 0.00 0.00 0.00 0.00 0.00 0.00 0.00 0.00 0.00 0.00
0.00 0.00 0.00 0.00 0.00 0.00 0.00 0.00 0.00 0.00 0.00 0.00 0.00 0.00 0.00 0.00 0.00 0.00 0.00 0.00 0.00 0.00 0.00 0.00 0.00 0.00 0.00 0.00 0.01 0.01 0.01 0.00 0.00 0.00 0.00 0.00 0.00 0.00 0.00 0.00 0.00 0.00 0.00 0.00
0.00 0.00 0.00 0.00 0.00 0.00 0.00 0.00 0.00 0.00 0.00 0.00 0.00 0.00 0.00 0.00 0.00 0.00 0.00 0.00 0.00 0.00 0.00 0.00 0.00 0.00 0.00 0.00 0.00 0.00 0.00 0.00 0.00 0.00 0.00 0.00 0.00 0.00 0.00 0.00 0.00 0.00 0.00 0.00
0.00 0.00 0.00 0.00 0.00 0.00 0.00 0.00 0.00 0.00 0.00 0.00 0.00 0.00 0.00 0.00 0.00 0.00 0.00 0.00 0.00 0.00 0.00 0.00 0.00 0.00 0.00 0.00 0.00 0.00 0.00 0.00 0.00 0.00 0.00 0.00 0.00 0.00 0.00 0.00 0.00 0.00 0.00 0.00
0.00 0.00 0.00 0.00 0.00 0.00 0.00 0.00 0.00 0.00 0.00 0.00 0.00 0.00 0.00 0.00 0.00 0.00 0.00 0.00 0.00 0.00 0.00 0.00 0.00 0.00 0.00 0.00 0.00 0.00 0.00 0.00 0.00 0.00 0.00 0.00 0.00 0.00 0.00 0.00 0.00 0.00 0.00 0.00
0.00 0.00 0.00 0.00 0.00 0.00 0.00 0.00 0.00 0.00 0.00 0.00 0.00 0.00 0.00 0.00 0.00 0.00 0.00 0.00 0.00 0.00 0.00 0.00 0.00 0.00 0.00 0.00 0.00 0.00 0.00 0.00 0.00 0.00 0.00 0.00 0.00 0.00 0.00 0.00 0.00 0.00 0.00 0.00
0.00 0.00 0.00 0.00 0.00 0.00 0.00 0.00 0.00 0.00 0.00 0.00 0.00 0.00 0.00 0.00 0.00 0.00 0.00 0.00 0.00 0.00 0.00 0.00 0.00 0.00 0.00 0.00 0.00 0.00 0.00 0.00 0.00 0.00 0.00 0.00 0.00 0.00 0.00 0.00 0.00 0.00 0.00 0.00
0.00 0.00 0.00 0.00 0.00 0.00 0.00 0.00 0.00 0.00 0.00 0.00 0.00 0.00 0.00 0.00 0.00 0.00 0.00 0.00 0.00 0.00 0.00 0.00 0.00 0.00 0.00 0.00 0.00 0.00 0.00 0.00 0.00 0.00 0.00 0.00 0.00 0.00 0.00 0.00 0.00 0.00 0.00 0.00
0.00 0.00 0.00 0.00 0.00 0.00 0.00 0.00 0.00 0.00 0.00 0.00 0.00 0.00 0.00 0.00 0.00 0.00 0.00 0.00 0.00 0.00 0.00 0.00 0.00 0.00 0.00 0.00 0.00 0.00 0.00 0.00 0.00 0.00 0.00 0.00 0.00 0.00 0.00 0.00 0.00 0.00 0.00 0.00
0.00 0.00 0.00 0.00 0.00 0.00 0.00 0.00 0.00 0.00 0.00 0.00 0.00 0.00 0.00 0.00 0.00 0.00 0.00 0.00 0.00 0.00 0.00 0.00 0.00 0.00 0.00 0.00 0.00 0.00 0.00 0.00 0.00 0.00 0.00 0.00 0.00 0.00 0.00 0.00 0.00 0.00 0.00 0.00
0.00 0.00 0.00 0.00 0.00 0.00 0.00 0.00 0.00 0.00 0.00 0.00 0.00 0.00 0.00 0.00 0.00 0.00 0.00 0.00 0.00 0.00 0.00 0.00 0.00 0.00 0.00 0.00 0.00 0.00 0.00 0.00 0.00 0.00 0.00 0.00 0.00 0.00 0.00 0.00 0.00 0.00 0.00 0.00
0.00 0.00 0.00 0.00 0.00 0.00 0.00 0.00 0.00 0.00 0.00 0.00 0.00 0.00 0.00 0.00 0.00 0.00 0.00 0.00 0.00 0.00 0.00 0.00 0.00 0.00 0.00 0.00 0.00 0.00 0.00 0.00 0.00 0.00 0.00 0.00 0.00 0.00 0.00 0.00 0.00 0.00 0.00 0.00
0.00 0.00 0.00 0.00 0.00 0.00 0.00 0.00 0.00 0.00 0.00 0.00 0.00 0.00 0.00 0.00 0.00 0.00 0.00 0.00 0.00 0.00 0.00 0.00 0.00 0.00 0.00 0.00 0.00 0.00 0.00 0.00 0.00 0.00 0.00 0.00 0.00 0.00 0.00 0.00 0.00 0.00 0.00 0.00
0.00 0.00 0.00 0.00 0.00 0.00 0.00 0.00 0.00 0.00 0.00 0.00 0.00 0.00 0.00 0.00 0.00 0.00 0.00 0.00 0.00 0.00 0.00 0.00 0.00 0.00 0.00 0.00 0.00 0.00 0.00 0.00 0.00 0.00 0.00 0.00 0.00 0.00 0.00 0.00 0.00 0.00 0.00 0.00
0.00 0.00 0.00 0.00 0.00 0.00 0.00 0.00 0.00 0.00 0.00 0.00 0.00 0.00 0.00 0.00 0.00 0.00 0.00 0.00 0.00 0.00 0.00 0.00 0.00 0.00 0.00 0.00 0.00 0.00 0.00 0.00 0.00 0.00 0.00 0.00 0.00 0.00 0.00 0.00 0.00 0.00 0.00 0.00
0.00 0.00 0.00 0.00 0.00 0.00 0.00 0.00 0.00 0.00 0.00 0.00 0.00 0.00 0.00 0.00 0.00 0.00 0.00 0.00 0.00 0.00 0.00 0.00 0.00 0.00 0.00 0.00 0.00 0.00 0.00 0.00 0.01 0.01 0.01 0.01 0.01 0.01 0.00 0.01 0.00 0.01 0.01 0.01
0.00 0.00 0.00 0.00 0.00 0.00 0.00 0.00 0.00 0.00 0.00 0.00 0.00 0.00 0.00 0.00 0.00 0.00 0.00 0.00 0.00 0.00 0.00 0.00 0.00 0.00 0.00 0.00 0.00 0.00 0.00 0.01 0.01 0.01 0.01 0.01 0.01 0.01 0.00 0.01 0.01 0.01 0.02 0.02
0.00 0.00 0.00 0.00 0.00 0.00 0.00 0.00 0.00 0.00 0.00 0.00 0.00 0.00 0.00 0.00 0.00 0.00 0.00 0.00 0.00 0.00 0.00 0.00 0.00 0.00 0.00 0.00 0.00 0.01 0.01 0.01 0.01 0.01 0.01 0.01 0.01 0.01 0.01 0.01 0.01 0.02 0.02 0.03
0.00 0.00 0.00 0.00 0.00 0.00 0.00 0.00 0.00 0.00 0.00 0.00 0.00 0.00 0.00 0.00 0.00 0.00 0.00 0.00 0.00 0.00 0.00 0.00 0.00 0.00 0.00 0.00 0.01 0.01 0.01 0.01 0.01 0.01 0.01 0.01 0.01 0.01 0.01 0.02 0.02 0.03 0.03 0.04
0.00 0.00 0.00 0.00 0.00 0.00 0.00 0.00 0.00 0.00 0.00 0.00 0.00 0.00 0.00 0.00 0.00 0.00 0.00 0.00 0.00 0.00 0.00 0.00 0.00 0.00 0.01 0.01 0.01 0.01 0.01 0.01 0.01 0.01 0.01 0.01 0.02 0.02 0.03 0.03 0.03 0.03 0.03 0.04
0.00 0.00 0.00 0.00 0.00 0.00 0.00 0.00 0.00 0.00 0.00 0.00 0.00 0.00 0.00 0.00 0.00 0.00 0.00 0.00 0.00 0.00 0.00 0.00 0.00 0.00 0.01 0.01 0.01 0.01 0.01 0.01 0.01 0.02 0.02 0.02 0.03 0.03 0.04 0.04 0.04 0.03 0.03 0.05
0.00 0.00 0.00 0.00 0.00 0.00 0.00 0.00 0.00 0.00 0.00 0.00 0.00 0.00 0.00 0.00 0.00 0.00 0.00 0.00 0.00 0.00 0.00 0.00 0.00 0.01 0.01 0.01 0.01 0.01 0.01 0.01 0.02 0.02 0.03 0.03 0.03 0.03 0.04 0.04 0.04 0.03 0.03 0.03
0.00 0.00 0.00 0.00 0.00 0.00 0.00 0.00 0.00 0.00 0.00 0.00 0.00 0.00 0.00 0.00 0.00 0.00 0.00 0.00 0.00 0.00 0.00 0.00 0.00 0.01 0.01 0.01 0.01 0.01 0.02 0.02 0.02 0.03 0.03 0.03 0.03 0.03 0.03 0.03 0.04 0.04 0.03 0.03
0.00 0.00 0.00 0.00 0.00 0.00 0.00 0.00 0.00 0.00 0.00 0.00 0.00 0.00 0.00 0.00 0.00 0.00 0.00 0.00 0.00 0.00 0.00 0.00 0.00 0.01 0.01 0.01 0.01 0.02 0.02 0.02 0.02 0.02 0.02 0.03 0.03 0.03 0.03 0.04 0.04 0.04 0.04 0.03
0.00 0.00 0.00 0.00 0.00 0.00 0.00 0.00 0.00 0.00 0.00 0.00 0.00 0.00 0.00 0.00 0.00 0.00 0.00 0.00 0.00 0.00 0.00 0.01 0.01 0.01 0.02 0.02 0.02 0.03 0.03 0.02 0.02 0.02 0.03 0.03 0.04 0.05 0.05 0.05 0.05 0.05 0.05 0.04
MSLP
1009.75 1009.79 1009.82 1009.85 1009.92 1010.03 1010.17 1010.35 1010.53 1010.71 1010.86 1010.96 1011.02 1011.03 1011.01 1010.97 1010.94 1010.91 1010.91 1010.93 1010.97 1011.03 1011.11 1011.20 1011.29 1011.40 1011.54 1011.69 1011.86 1012.04 1012.23 1012.41 1012.56 1012.67 1012.74 1012.75 1012.71 1012.64 1012.56 1012.48 1012.42 1012.41 1012.44 1012.52
1009.88 1009.89 1009.85 1009.79 1009.75 1009.75 1009.79 1009.89 1010.04 1010.22 1010.41 1010.59 1010.76 1010.89 1011.00 1011.08 1011.14 1011.19 1011.24 1011.28 1011.34 1011.40 1011.47 1011.56 1011.66 1011.78 1011.92 1012.08 1012.25 1012.43 1012.61 1012.78 1012.91 1012.99 1013.03 1013.00 1012.93 1012.82 1012.69 1012.55 1012.43 1012.34 1012.29 1012.29
1010.05 1010.05 1009.97 1009.84 1009.71 1009.61 1009.57 1009.59 1009.68 1009.84 1010.04 1010.27 1010.52 1010.75 1010.97 1011.15 1011.31 1011.44 1011.55 1011.64 1011.72 1011.80 1011.89 1011.98 1012.08 1012.20 1012.34 1012.49 1012.66 1012.83 1012.99 1013.13 1013.25 1013.31 1013.32 1013.28 1013.18 1013.04 1012.86 1012.67 1012.48 1012.32 1012.19 1012.10
1010.21 1010.19 1010.08 1009.91 1009.72 1009.54 1009.42 1009.36 1009.40 1009.53 1009.73 1009.99 1010.29 1010.60 1010.91 1011.19 1011.44 1011.66 1011.84 1011.99 1012.11 1012.22 1012.31 1012.40 1012.50 1012.60 1012.72 1012.85 1013.00 1013.14 1013.28 1013.41 1013.51 1013.56 1013.56 1013.51 1013.40 1013.25 1013.05 1012.82 1012.59 1012.37 1012.17 1012.00
1010.26 1010.23 1010.09 1009.89 1009.65 1009.43 1009.25 1009.15 1009.15 1009.25 1009.45 1009.73 1010.07 1010.45 1010.84 1011.22 1011.56 1011.86 1012.12 1012.32 1012.49 1012.61 1012.71 1012.79 1012.86 1012.94 1013.02 1013.12 1013.23 1013.34 1013.46 1013.57 1013.65 1013.70 1013.71 1013.67 1013.57 1013.42 1013.23 1013.00 1012.75 1012.49 1012.25 1012.03
1010.16 1010.09 1009.94 1009.71 1009.46 1009.21 1009.01 1008.89 1008.88 1008.98 1009.19 1009.51 1009.90 1010.34 1010.81 1011.26 1011.69 1012.07 1012.39 1012.65 1012.85 1012.99 1013.08 1013.14 1013.18 1013.21 1013.25 1013.29 1013.36 1013.44 1013.52 1013.61 1013.70 1013.76 1013.78 1013.76 1013.69 1013.57 1013.40 1013.20 1012.96 1012.70 1012.45 1012.20
1009.89 1009.78 1009.60 1009.37 1009.11 1008.88 1008.69 1008.59 1008.60 1008.73 1008.99 1009.35 1009.80 1010.31 1010.84 1011.38 1011.88 1012.32 1012.70 1012.99 1013.20 1013.34 1013.42 1013.44 1013.44 1013.42 1013.41 1013.41 1013.43 1013.47 1013.53 1013.61 1013.69 1013.76 1013.81 1013.82 1013.79 1013.71 1013.58 1013.41 1013.21 1012.98 1012.74 1012.50
1009.50 1009.34 1009.14 1008.91 1008.68 1008.48 1008.34 1008.30 1008.36 1008.56 1008.87 1009.29 1009.81 1010.39 1010.99 1011.58 1012.13 1012.62 1013.03 1013.34 1013.56 1013.69 1013.74 1013.73 1013.68 1013.62 1013.56 1013.51 1013.49 1013.51 1013.55 1013.61 1013.69 1013.77 1013.84 1013.88 1013.88 1013.84 1013.76 1013.64 1013.48 1013.29 1013.08 1012.87
1009.06 1008.86 1008.64 1008.43 1008.24 1008.10 1008.04 1008.07 1008.22 1008.50 1008.89 1009.38 1009.96 1010.60 1011.25 1011.88 1012.47 1012.98 1013.40 1013.71 1013.91 1014.02 1014.05 1014.01 1013.93 1013.83 1013.73 1013.66 1013.62 1013.61 1013.64 1013.69 1013.77 1013.85 1013.92 1013.97 1013.99 1013.97 1013.92 1013.83 1013.71 1013.57 1013.40 1013.22
1008.66 1008.43 1008.21 1008.03 1007.90 1007.84 1007.87 1008.00 1008.25 1008.61 1009.08 1009.64 1010.27 1010.94 1011.62 1012.27 1012.86 1013.36 1013.77 1014.07 1014.25 1014.33 1014.34 1014.28 1014.18 1014.06 1013.96 1013.87 1013.82 1013.81 1013.83 1013.87 1013.93 1014.00 1014.06 1014.09 1014.10 1014.08 1014.03 1013.96 1013.86 1013.74 1013.61 1013.47
1008.38 1008.14 1007.94 1007.81 1007.75 1007.77 1007.90 1008.13 1008.46 1008.90 1009.43 1010.04 1010.70 1011.39 1012.06 1012.69 1013.26 1013.74 1014.12 1014.38 1014.54 1014.60 1014.59 1014.52 1014.43 1014.32 1014.22 1014.15 1014.11 1014.09 1014.11 1014.14 1014.18 1014.21 1014.22 1014.22 1014.19 1014.13 1014.06 1013.96 1013.86 1013.75 1013.64 1013.52
1008.26 1008.04 1007.88 1007.81 1007.82 1007.93 1008.15 1008.46 1008.87 1009.36 1009.94 1010.56 1011.22 1011.89 1012.52 1013.12 1013.63 1014.06 1014.39 1014.62 1014.75 1014.80 1014.79 1014.73 1014.65 1014.57 1014.50 1014.45 1014.43 1014.42 1014.43 1014.44 1014.44 1014.42 1014.38 1014.30 1014.20 1014.08 1013.95 1013.81 1013.68 1013.56 1013.44 1013.33
1008.29 1008.11 1008.01 1008.00 1008.09 1008.28 1008.57 1008.95 1009.40 1009.93 1010.51 1011.13 1011.76 1012.37 1012.95 1013.48 1013.93 1014.30 1014.58 1014.76 1014.87 1014.91 1014.90 1014.87 1014.82 1014.78 1014.74 1014.73 1014.73 1014.73 1014.73 1014.71 1014.66 1014.58 1014.46 1014.30 1014.11 1013.91 1013.70 1013.50 1013.32 1013.16 1013.03 1012.91
1008.43 1008.31 1008.28 1008.34 1008.50 1008.76 1009.10 1009.52 1010.00 1010.53 1011.10 1011.68 1012.25 1012.80 1013.31 1013.76 1014.13 1014.43 1014.66 1014.81 1014.89 1014.93 1014.93 1014.92 1014.91 1014.91 1014.91 1014.92 1014.94 1014.95 1014.93 1014.87 1014.77 1014.62 1014.42 1014.18 1013.90 1013.61 1013.32 1013.05 1012.82 1012.62 1012.46 1012.33
1008.64 1008.58 1008.62 1008.75 1008.98 1009.28 1009.66 1010.09 1010.58 1011.09 1011.62 1012.15 1012.66 1013.13 1013.56 1013.93 1014.24 1014.47 1014.65 1014.76 1014.83 1014.86 1014.88 1014.89 1014.91 1014.94 1014.97 1015.00 1015.03 1015.03 1014.99 1014.89 1014.74 1014.53 1014.25 1013.93 1013.57 1013.21 1012.85 1012.53 1012.24 1012.00 1011.81 1011.67
1008.87 1008.88 1008.98 1009.17 1009.44 1009.78 1010.17 1010.61 1011.08 1011.56 1012.04 1012.51 1012.96 1013.36 1013.71 1014.01 1014.25 1014.43 1014.56 1014.64 1014.69 1014.73 1014.75 1014.78 1014.82 1014.86 1014.91 1014.95 1014.97 1014.95 1014.88 1014.75 1014.56 1014.29 1013.96 1013.58 1013.17 1012.75 1012.35 1011.98 1011.65 1011.39 1011.17 1011.00
1009.11 1009.18 1009.33 1009.56 1009.85 1010.20 1010.60 1011.03 1011.47 1011.91 1012.35 1012.76 1013.14 1013.48 1013.77 1014.00 1014.19 1014.32 1014.41 1014.47 1014.51 1014.53 1014.56 1014.59 1014.63 1014.67 1014.72 1014.75 1014.75 1014.72 1014.62 1014.46 1014.23 1013.93 1013.56 1013.15 1012.72 1012.27 1011.85 1011.46 1011.12 1010.82 1010.59 1010.39
1009.39 1009.49 1009.67 1009.91 1010.21 1010.56 1010.94 1011.34 1011.75 1012.15 1012.54 1012.90 1013.22 1013.50 1013.73 1013.92 1014.06 1014.15 1014.21 1014.25 1014.26 1014.28 1014.29 1014.31 1014.34 1014.38 1014.41 1014.42 1014.40 1014.34 1014.22 1014.04 1013.79 1013.47 1013.10 1012.68 1012.24 1011.80 1011.38 1010.99 1010.64 1010.34 1010.08 1009.85
1009.72 1009.84 1010.01 1010.25 1010.53 1010.85 1011.20 1011.56 1011.92 1012.28 1012.62 1012.93 1013.20 1013.43 1013.61 1013.75 1013.85 1013.91 1013.94 1013.95 1013.94 1013.94 1013.93 1013.94 1013.95 1013.96 1013.97 1013.96 1013.92 1013.84 1013.70 1013.51 1013.25 1012.93 1012.57 1012.17 1011.75 1011.33 1010.93 1010.55 1010.21 1009.90 1009.62 1009.36
1010.12 1010.22 1010.38 1010.58 1010.83 1011.10 1011.40 1011.71 1012.02 1012.33 1012.61 1012.86 1013.08 1013.26 1013.40 1013.49 1013.55 1013.57 1013.57 1013.54 1013.51 1013.48 1013.46 1013.44 1013.43 1013.42 1013.40 1013.37 1013.31 1013.22 1013.07 1012.87 1012.62 1012.32 1011.97 1011.60 1011.21 1010.82 1010.45 1010.09 1009.76 1009.44 1009.15 1008.85
1010.56 1010.63 1010.75 1010.91 1011.10 1011.32 1011.55 1011.80 1012.05 1012.29 1012.51 1012.71 1012.87 1012.99 1013.08 1013.12 1013.13 1013.11 1013.07 1013.01 1012.95 1012.89 1012.84 1012.79 1012.76 1012.73 1012.70 1012.66 1012.58 1012.48 1012.33 1012.14 1011.90 1011.61 1011.29 1010.95 1010.59 1010.24 1009.89 1009.55 1009.22 1008.91 1008.59 1008.27
1011.01 1011.04 1011.10 1011.20 1011.32 1011.47 1011.64 1011.82 1012.00 1012.17 1012.32 1012.45 1012.55 1012.61 1012.64 1012.63 1012.58 1012.52 1012.43 1012.33 1012.24 1012.15 1012.07 1012.01 1011.96 1011.92 1011.87 1011.82 1011.74 1011.64 1011.49 1011.30 1011.08 1010.81 1010.51 1010.19 1009.86 1009.53 1009.20 1008.88 1008.56 1008.24 1007.91 1007.56
1011.37 1011.35 1011.36 1011.40 1011.46 1011.54 1011.64 1011.75 1011.85 1011.95 1012.04 1012.10 1012.13 1012.13 1012.09 1012.02 1011.92 1011.80 1011.67 1011.54 1011.41 1011.29 1011.19 1011.11 1011.05 1011.00 1010.95 1010.89 1010.81 1010.70 1010.56 1010.38 1010.16 1009.90 1009.62 1009.32 1009.00 1008.68 1008.36 1008.05 1007.74 1007.42 1007.08 1006.73
1011.57 1011.52 1011.48 1011.46 1011.46 1011.48 1011.52 1011.56 1011.60 1011.64 1011.66 1011.65 1011.62 1011.56 1011.46 1011.34 1011.19 1011.02 1010.84 1010.67 1010.51 1010.37 1010.25 1010.15 1010.08 1010.02 1009.96 1009.90 1009.82 1009.72 1009.57 1009.39 1009.18 1008.92 1008.64 1008.33 1008.02 1007.71 1007.39 1007.08 1006.77 1006.46 1006.13 1005.78
1011.55 1011.46 1011.39 1011.33 1011.30 1011.27 1011.25 1011.25 1011.24 1011.23 1011.20 1011.14 1011.06 1010.95 1010.81 1010.63 1010.44 1010.23 1010.02 1009.81 1009.63 1009.46 1009.32 1009.21 1009.12 1009.05 1008.99 1008.92 1008.84 1008.72 1008.57 1008.38 1008.16 1007.89 1007.60 1007.29 1006.96 1006.64 1006.32 1006.02 1005.71 1005.41 1005.10 1004.78
1011.28 1011.18 1011.09 1011.02 1010.95 1010.90 1010.86 1010.83 1010.79 1010.75 1010.69 1010.61 1010.49 1010.35 1010.18 1009.97 1009.75 1009.52 1009.28 1009.05 1008.84 1008.65 1008.49 1008.36 1008.26 1008.17 1008.09 1008.01 1007.91 1007.77 1007.61 1007.40 1007.15 1006.86 1006.55 1006.22 1005.88 1005.55 1005.22 1004.91 1004.61 1004.33 1004.05 1003.76
1010.80 1010.71 1010.62 1010.54 1010.47 1010.42 1010.37 1010.33 1010.29 1010.24 1010.17 1010.08 1009.96 1009.81 1009.63 1009.41 1009.18 1008.93 1008.67 1008.43 1008.20 1008.00 1007.82 1007.67 1007.54 1007.43 1007.32 1007.21 1007.08 1006.92 1006.72 1006.48 1006.20 1005.88 1005.54 1005.18 1004.82 1004.47 1004.13 1003.82 1003.53 1003.26 1003.01 1002.76
Thickness
5745 5751 5750 5745 5745 5747 5743 5741 5731 5728 5727 5732 5737 5736 5736 5736 5734 5733 5731 5732 5731 5730 5731 5731 5731 5731 5731 5730 5729 5728 5724 5721 5719 5718 5716 5714 5712 5711 5710 5709 5708 5707 5705 5704
5740 5748 5747 5741 5743 5743 5741 5741 5736 5732 5728 5741 5742 5740 5735 5732 5729 5726 5725 5726 5727 5728 5728 5727 5727 5726 5726 5726 5726 5725 5721 5718 5716 5714 5712 5710 5708 5707 5706 5705 5704 5703 5702 5700
5729 5742 5740 5726 5740 5740 5738 5741 5738 5727 5729 5737 5733 5731 5729 5727 5725 5722 5721 5721 5722 5723 5724 5724 5725 5724 5722 5723 5723 5721 5717 5715 5712 5711 5708 5705 5704 5702 5700 5699 5699 5698 5698 5697
5729 5730 5711 5731 5753 5749 5739 5738 5741 5736 5734 5734 5730 5728 5728 5727 5722 5718 5717 5716 5717 5718 5719 5720 5721 5721 5720 5719 5717 5714 5712 5710 5708 5706 5703 5701 5699 5697 5696 5695 5694 5693 5693 5692
5726 5717 5719 5730 5744 5744 5733 5727 5738 5733 5730 5730 5730 5723 5718 5722 5721 5717 5715 5713 5713 5714 5714 5714 5714 5714 5714 5712 5709 5706 5703 5702 5701 5699 5697 5695 5693 5692 5691 5690 5689 5689 5689 5688
5722 5712 5707 5725 5744 5750 5737 5716 5734 5733 5727 5725 5722 5705 5704 5715 5714 5712 5710 5709 5707 5708 5707 5705 5706 5706 5704 5702 5699 5697 5696 5695 5695 5694 5691 5689 5688 5687 5686 5684 5683 5683 5683 5683
5713 5712 5717 5730 5741 5739 5711 5711 5730 5730 5725 5721 5713 5708 5708 5710 5707 5705 5703 5702 5701 5700 5697 5696 5697 5696 5694 5692 5690 5690 5690 5689 5687 5686 5685 5684 5682 5680 5679 5677 5676 5676 5676 5677
5714 5706 5703 5729 5730 5721 5716 5727 5726 5722 5719 5713 5709 5707 5704 5701 5698 5696 5694 5693 5692 5690 5688 5689 5688 5686 5683 5681 5682 5682 5681 5679 5678 5678 5677 5677 5674 5672 5670 5668 5666 5666 5666 5667
5715 5706 5716 5724 5722 5723 5724 5717 5715 5712 5710 5705 5700 5697 5695 5692 5690 5688 5686 5684 5683 5681 5679 5679 5678 5676 5672 5672 5673 5672 5670 5668 5668 5668 5667 5666 5664 5662 5660 5659 5656 5656 5655 5655
5707 5704 5710 5713 5714 5714 5713 5708 5706 5704 5700 5696 5691 5688 5685 5683 5681 5679 5677 5675 5673 5671 5668 5667 5667 5666 5664 5663 5662 5660 5658 5657 5657 5656 5655 5654 5653 5651 5649 5648 5646 5645 5644 5644
5700 5697 5699 5700 5701 5700 5699 5698 5695 5692 5689 5686 5682 5679 5677 5674 5672 5669 5667 5665 5662 5659 5657 5656 5656 5655 5654 5652 5650 5648 5646 5645 5645 5644 5643 5641 5641 5639 5638 5638 5636 5634 5634 5634
5690 5694 5692 5688 5692 5692 5687 5684 5682 5679 5677 5676 5673 5669 5667 5664 5662 5659 5656 5654 5651 5648 5646 5645 5644 5642 5641 5640 5637 5635 5633 5632 5630 5629 5629 5628 5627 5627 5628 5627 5626 5625 5624 5623
5693 5693 5689 5686 5684 5682 5678 5675 5673 5670 5667 5664 5662 5660 5656 5653 5650 5648 5645 5642 5639 5637 5635 5633 5631 5628 5627 5626 5623 5620 5618 5617 5616 5615 5614 5613 5613 5612 5612 5614 5614 5613 5612 5611
5683 5680 5674 5672 5670 5670 5668 5666 5663 5660 5657 5654 5651 5648 5644 5641 5638 5635 5632 5630 5627 5625 5622 5620 5617 5614 5613 5611 5608 5606 5604 5603 5602 5600 5599 5599 5599 5598 5598 5597 5598 5599 5600 5599
5669 5669 5665 5663 5660 5658 5656 5653 5649 5645 5643 5641 5638 5635 5631 5627 5624 5622 5620 5617 5614 5611 5609 5606 5603 5601 5599 5597 5594 5592 5590 5588 5586 5585 5585 5584 5584 5584 5584 5584 5584 5585 5586 5587
5657 5656 5653 5649 5645 5643 5641 5638 5634 5632 5630 5627 5623 5621 5618 5615 5612 5609 5606 5603 5599 5596 5594 5592 5589 5587 5585 5582 5579 5577 5575 5574 5572 5571 5571 5570 5570 5569 5569 5569 5569 5569 5570 5570
5641 5638 5636 5633 5631 5629 5627 5625 5622 5619 5616 5613 5609 5607 5604 5601 5598 5595 5592 5590 5587 5583 5581 5578 5575 5573 5570 5567 5564 5562 5561 5560 5559 5557 5556 5556 5555 5554 5554 5554 5553 5554 5555 5556
5632 5629 5627 5624 5620 5617 5614 5612 5609 5605 5602 5599 5596 5593 5589 5586 5582 5580 5578 5576 5574 5570 5567 5564 5561 5558 5555 5552 5549 5547 5546 5545 5543 5542 5541 5540 5539 5539 5538 5538 5538 5539 5540 5541
5620 5616 5613 5610 5608 5604 5601 5597 5594 5591 5588 5585 5582 5578 5575 5572 5569 5567 5565 5561 5557 5554 5552 5550 5547 5543 5540 5538 5535 5532 5530 5529 5528 5527 5526 5526 5525 5524 5523 5523 5523 5524 5524 5525
5605 5602 5599 5596 5594 5590 5587 5584 5581 5578 5575 5571 5568 5565 5561 5559 5556 5554 5551 5547 5544 5540 5538 5535 5532 5528 5526 5523 5520 5516 5514 5513 5512 5512 5511 5510 5509 5509 5509 5509 5509 5510 5511 5512
5590 5587 5585 5582 5579 5577 5574 5571 5567 5564 5561 5558 5554 5551 5548 5546 5543 5540 5537 5533 5532 5528 5525 5522 5518 5514 5511 5508 5505 5502 5500 5499 5498 5497 5497 5497 5496 5496 5496 5496 5496 5497 5498 5500
5576 5574 5571 5569 5566 5563 5561 5558 5555 5551 5548 5545 5542 5538 5535 5533 5530 5527 5525 5520 5519 5516 5512 5508 5504 5501 5498 5495 5492 5490 5488 5487 5486 5485 5484 5484 5483 5482 5483 5483 5483 5485 5487 5487
5564 5561 5558 5556 5553 5550 5548 5545 5541 5538 5535 5532 5529 5526 5522 5520 5517 5513 5511 5510 5507 5503 5498 5495 5492 5489 5486 5483 5481 5479 5478 5477 5475 5474 5472 5472 5471 5471 5471 5471 5472 5473 5475 5476
5550 5548 5545 5543 5540 5537 5533 5531 5528 5526 5522 5519 5517 5514 5510 5508 5506 5503 5500 5498 5494 5490 5486 5483 5480 5479 5476 5474 5472 5470 5468 5466 5464 5463 5462 5462 5461 5461 5461 5461 5462 5463 5465 5467
5537 5535 5532 5529 5525 5522 5520 5518 5515 5512 5509 5506 5504 5502 5499 5495 5492 5489 5487 5484 5481 5478 5475 5473 5472 5469 5467 5464 5463 5461 5459 5457 5456 5454 5453 5452 5452 5452 5452 5452 5453 5454 5456 5459
5524 5521 5518 5516 5513 5510 5507 5505 5502 5499 5496 5494 5492 5489 5486 5482 5479 5476 5473 5471 5469 5467 5465 5463 5461 5460 5457 5455 5453 5452 5450 5449 5448 5447 5446 5445 5445 5444 5444 5444 5445 5446 5448 5450
5510 5508 5505 5503 5501 5499 5496 5493 5490 5487 5484 5481 5478 5476 5472 5469 5467 5464 5462 5460 5458 5456 5455 5453 5451 5449 5447 5445 5444 5443 5442 5441 5440 5439 5439 5438 5438 5437 5437 5437 5437 5439 5441 5443